This is the latest recevied weather packets stored in our database for station/object W4KUS-10. If no packets are shown the sender has not sent any weather packets the latest 10 day(s).
| Time | Temp. | Humidity | Pressure | Rain* | Wind** | Luminosity | Snow |
|---|---|---|---|---|---|---|---|
| 1777395040 | 22.78° C | 42% | 1020.1 hPa | 0 mm | - | - | - |
| 1777394740 | 22.78° C | 43% | 1020.4 hPa | 0 mm | - | - | - |
| 1777394440 | 22.78° C | 46% | 1020.6 hPa | 0 mm | - | - | - |
| 1777394140 | 22.78° C | 47% | 1020.7 hPa | 0 mm | - | - | - |
| 1777393840 | 22.22° C | 47% | 1020.9 hPa | 0 mm | - | - | - |
| 1777393540 | 22.22° C | 45% | 1021.1 hPa | 0 mm | - | - | - |
| 1777393240 | 22.22° C | 46% | 1021.2 hPa | 0 mm | - | - | - |
| 1777392940 | 21.67° C | 48% | 1021.2 hPa | 0 mm | - | - | - |
| 1777392640 | 21.67° C | 47% | 1021.4 hPa | 0 mm | - | - | - |
| 1777392340 | 21.67° C | 48% | 1021.9 hPa | 0 mm | - | - | - |
| 1777392040 | 21.67° C | 48% | 1021.9 hPa | 0 mm | - | - | - |
| 1777391740 | 21.67° C | 47% | 1022 hPa | 0 mm | - | - | - |
| 1777391440 | 21.67° C | 48% | 1022.1 hPa | 0 mm | - | - | - |
| 1777391140 | 21.11° C | 50% | 1022.2 hPa | 0 mm | - | - | - |
| 1777390840 | 21.11° C | 50% | 1022.4 hPa | 0 mm | - | - | - |
| 1777390540 | 20.56° C | 50% | 1022.5 hPa | 0 mm | - | - | - |
| 1777390240 | 20.56° C | 49% | 1022.6 hPa | 0 mm | - | - | - |
| 1777389940 | 21.11° C | 49% | 1022.7 hPa | 0 mm | - | - | - |
| 1777389640 | 21.67° C | 50% | 1022.7 hPa | 0 mm | - | - | - |
| 1777389340 | 21.11° C | 53% | 1022.7 hPa | 0 mm | - | - | - |
| 1777389040 | 21.11° C | 53% | 1022.8 hPa | 0 mm | - | - | - |
| 1777388740 | 21.11° C | 54% | 1022.8 hPa | 0 mm | - | - | - |
| 1777388440 | 20.56° C | 55% | 1022.8 hPa | 0 mm | - | - | - |
| 1777388140 | 20.56° C | 57% | 1022.9 hPa | 0 mm | - | - | - |
| 1777387840 | 20.56° C | 57% | 1022.9 hPa | 0 mm | - | - | - |
* Rain latest hour (hover to see other rain measurements)
** Current wind speed in m/s (hover to see current wind gust speed)